Time,TemperatureF,DewpointF,PressureIn,WindDirection,WindDirectionDegrees,WindSpeedMPH,WindSpeedGustMPH,Humidity,HourlyPrecipIn,Conditions,Clouds,dailyrainin,SoftwareType,DateUTC
2013-08-26 00:00:00,80.6,71.6,30.02,East,88,0.0,7.0,74,0.00,,SKC,0.00,VWS V14.01,2013-08-26 05:00:00,
2013-08-26 00:01:00,80.4,71.4,30.02,East,88,0.0,1.0,74,0.00,,SKC,0.00,VWS V14.01,2013-08-26 05:01:00,
2013-08-26 00:06:00,80.2,71.2,30.02,East,88,0.0,0.0,74,0.00,,SKC,0.00,VWS V14.01,2013-08-26 05:06:00,
2013-08-26 00:10:00,80.3,71.3,30.02,East,88,0.0,1.0,74,0.00,,SKC,0.00,VWS V14.01,2013-08-26 05:10:00,
2013-08-26 00:11:00,80.1,71.1,30.02,East,88,0.0,0.0,74,0.00,,SKC,0.00,VWS V14.01,2013-08-26 05:11:00,
2013-08-26 00:16:00,80.0,71.4,30.02,East,88,0.0,0.0,75,0.00,,SKC,0.00,VWS V14.01,2013-08-26 05:16:00,
2013-08-26 00:20:00,80.0,71.4,30.02,East,88,0.0,0.0,75,0.00,,SKC,0.00,VWS V14.01,2013-08-26 05:20:00,
2013-08-26 00:21:00,79.8,71.2,30.02,East,88,0.0,0.0,75,0.00,,SKC,0.00,VWS V14.01,2013-08-26 05:21:00,
2013-08-26 00:26:00,79.6,71.0,30.02,East,88,0.0,0.0,75,0.00,,SKC,0.00,VWS V14.01,2013-08-26 05:26:00,
2013-08-26 00:30:00,79.6,71.0,30.02,East,88,0.0,0.0,75,0.00,,SKC,0.00,VWS V14.01,2013-08-26 05:30:00,
2013-08-26 00:31:00,79.5,70.9,30.02,East,88,0.0,0.0,75,0.00,,SKC,0.00,VWS V14.01,2013-08-26 05:31:00,
2013-08-26 00:36:00,79.3,71.1,30.02,East,88,0.0,0.0,76,0.00,,SKC,0.00,VWS V14.01,2013-08-26 05:36:00,
2013-08-26 00:40:00,79.3,70.7,30.02,East,88,0.0,0.0,75,0.00,,SKC,0.00,VWS V14.01,2013-08-26 05:40:00,
2013-08-26 00:41:00,79.2,71.0,30.02,East,88,0.0,0.0,76,0.00,,SKC,0.00,VWS V14.01,2013-08-26 05:41:00,
2013-08-26 00:46:00,79.1,70.9,30.02,East,88,0.0,0.0,76,0.00,,SKC,0.00,VWS V14.01,2013-08-26 05:46:00,
2013-08-26 00:50:00,79.1,70.9,30.02,East,88,0.0,0.0,76,0.00,,SKC,0.00,VWS V14.01,2013-08-26 05:50:00,
2013-08-26 00:51:00,78.9,71.1,30.02,East,88,0.0,0.0,77,0.00,,SKC,0.00,VWS V14.01,2013-08-26 05:51:00,
2013-08-26 00:56:00,78.8,71.0,30.02,East,88,0.0,0.0,77,0.00,,SKC,0.00,VWS V14.01,2013-08-26 05:56:00,
2013-08-26 01:00:00,78.8,71.0,30.02,East,88,0.0,0.0,77,0.00,,SKC,0.00,VWS V14.01,2013-08-26 06:00:00,
2013-08-26 01:01:00,78.7,71.3,30.02,East,88,0.0,0.0,78,0.00,,SKC,0.00,VWS V14.01,2013-08-26 06:01:00,
2013-08-26 01:06:00,78.6,71.2,30.02,East,88,0.0,0.0,78,0.00,,SKC,0.00,VWS V14.01,2013-08-26 06:06:00,
2013-08-26 01:10:00,78.6,71.2,30.02,East,88,0.0,0.0,78,0.00,,SKC,0.00,VWS V14.01,2013-08-26 06:10:00,
2013-08-26 01:11:00,78.5,71.1,30.02,East,88,0.0,0.0,78,0.00,,SKC,0.00,VWS V14.01,2013-08-26 06:11:00,
2013-08-26 01:16:00,78.4,71.0,30.02,East,88,0.0,0.0,78,0.00,,SKC,0.00,VWS V14.01,2013-08-26 06:16:00,
2013-08-26 01:20:00,78.4,71.0,30.02,East,88,0.0,0.0,78,0.00,,SKC,0.00,VWS V14.01,2013-08-26 06:20:00,
2013-08-26 01:21:00,78.3,70.9,30.02,East,88,0.0,0.0,78,0.00,,SKC,0.00,VWS V14.01,2013-08-26 06:21:00,
2013-08-26 01:26:00,78.2,70.8,30.02,East,88,0.0,0.0,78,0.00,,SKC,0.00,VWS V14.01,2013-08-26 06:26:00,
2013-08-26 01:30:00,78.2,70.8,30.02,East,88,0.0,0.0,78,0.00,,SKC,0.00,VWS V14.01,2013-08-26 06:30:00,
2013-08-26 01:31:00,78.0,71.0,30.02,East,88,0.0,0.0,79,0.00,,SKC,0.00,VWS V14.01,2013-08-26 06:31:00,
2013-08-26 01:36:00,77.9,70.9,30.02,East,88,0.0,0.0,79,0.00,,SKC,0.00,VWS V14.01,2013-08-26 06:36:00,
2013-08-26 01:40:00,77.9,70.9,30.02,East,88,0.0,0.0,79,0.00,,SKC,0.00,VWS V14.01,2013-08-26 06:40:00,
2013-08-26 01:41:00,77.8,70.8,30.01,East,88,0.0,0.0,79,0.00,,SKC,0.00,VWS V14.01,2013-08-26 06:41:00,
2013-08-26 01:46:00,77.6,70.9,30.01,East,88,0.0,0.0,80,0.00,,SKC,0.00,VWS V14.01,2013-08-26 06:46:00,
2013-08-26 01:50:00,77.6,70.9,30.01,East,88,0.0,0.0,80,0.00,,SKC,0.00,VWS V14.01,2013-08-26 06:50:00,
2013-08-26 01:51:00,77.5,70.8,30.01,East,88,0.0,0.0,80,0.00,,SKC,0.00,VWS V14.01,2013-08-26 06:51:00,
2013-08-26 01:56:00,77.4,70.8,30.01,East,88,0.0,0.0,80,0.00,,SKC,0.00,VWS V14.01,2013-08-26 06:56:00,
2013-08-26 02:00:00,77.4,70.8,30.01,East,88,0.0,0.0,80,0.00,,SKC,0.00,VWS V14.01,2013-08-26 07:00:00,
2013-08-26 02:01:00,77.3,70.7,30.01,East,88,0.0,0.0,80,0.00,,SKC,0.00,VWS V14.01,2013-08-26 07:01:00,
2013-08-26 02:06:00,77.1,70.8,30.01,East,88,0.0,0.0,81,0.00,,SKC,0.00,VWS V14.01,2013-08-26 07:06:00,
2013-08-26 02:10:00,77.1,70.8,30.01,East,88,0.0,0.0,81,0.00,,SKC,0.00,VWS V14.01,2013-08-26 07:10:00,
2013-08-26 02:11:00,76.9,70.6,30.01,East,88,0.0,0.0,81,0.00,,SKC,0.00,VWS V14.01,2013-08-26 07:11:00,
2013-08-26 02:16:00,76.9,71.0,30.01,East,88,0.0,0.0,82,0.00,,SKC,0.00,VWS V14.01,2013-08-26 07:16:00,
2013-08-26 02:20:00,76.8,70.9,30.00,East,88,0.0,0.0,82,0.00,,SKC,0.00,VWS V14.01,2013-08-26 07:20:00,
2013-08-26 02:21:00,76.7,70.8,30.01,East,88,0.0,0.0,82,0.00,,SKC,0.00,VWS V14.01,2013-08-26 07:21:00,
2013-08-26 02:26:00,76.7,70.8,30.01,East,88,0.0,0.0,82,0.00,,SKC,0.00,VWS V14.01,2013-08-26 07:26:00,
2013-08-26 02:30:00,76.6,70.7,30.01,East,88,0.0,0.0,82,0.00,,SKC,0.00,VWS V14.01,2013-08-26 07:30:00,
2013-08-26 02:31:00,76.6,70.7,30.01,East,88,0.0,0.0,82,0.00,,SKC,0.00,VWS V14.01,2013-08-26 07:31:00,
2013-08-26 02:36:00,76.4,70.9,30.01,East,88,0.0,0.0,83,0.00,,SKC,0.00,VWS V14.01,2013-08-26 07:36:00,
2013-08-26 02:40:00,76.4,70.9,30.01,East,88,0.0,0.0,83,0.00,,SKC,0.00,VWS V14.01,2013-08-26 07:40:00,
2013-08-26 02:45:00,76.2,70.7,30.01,East,88,0.0,0.0,83,0.00,,SKC,0.00,VWS V14.01,2013-08-26 07:45:00,
2013-08-26 02:50:00,76.2,70.7,30.01,East,88,0.0,0.0,83,0.00,,SKC,0.00,VWS V14.01,2013-08-26 07:50:00,
2013-08-26 02:55:00,76.1,70.6,30.00,East,88,0.0,0.0,83,0.00,,SKC,0.00,VWS V14.01,2013-08-26 07:55:00,
2013-08-26 03:00:00,76.0,70.8,30.01,East,88,0.0,0.0,84,0.00,,SKC,0.00,VWS V14.01,2013-08-26 08:00:00,
2013-08-26 03:05:00,76.0,70.8,30.01,East,88,0.0,0.0,84,0.00,,SKC,0.00,VWS V14.01,2013-08-26 08:05:00,
2013-08-26 03:10:00,75.9,70.7,30.01,East,88,0.0,0.0,84,0.00,,SKC,0.00,VWS V14.01,2013-08-26 08:10:00,
2013-08-26 03:15:00,75.9,70.7,30.00,East,88,0.0,0.0,84,0.00,,SKC,0.00,VWS V14.01,2013-08-26 08:15:00,
2013-08-26 03:20:00,75.8,71.0,30.01,East,88,0.0,0.0,85,0.00,,SKC,0.00,VWS V14.01,2013-08-26 08:20:00,
2013-08-26 03:25:00,75.8,71.0,30.00,East,88,0.0,0.0,85,0.00,,SKC,0.00,VWS V14.01,2013-08-26 08:25:00,
2013-08-26 03:30:00,75.8,71.0,30.01,East,88,0.0,1.0,85,0.00,,SKC,0.00,VWS V14.01,2013-08-26 08:30:00,
2013-08-26 03:35:00,75.8,71.0,30.00,East,88,0.0,1.0,85,0.00,,SKC,0.00,VWS V14.01,2013-08-26 08:35:00,
2013-08-26 03:40:00,75.9,71.1,30.00,East,88,0.0,0.0,85,0.00,,SKC,0.00,VWS V14.01,2013-08-26 08:40:00,
2013-08-26 03:45:00,75.9,71.1,30.00,East,88,0.0,0.0,85,0.00,,SKC,0.00,VWS V14.01,2013-08-26 08:45:00,
2013-08-26 03:50:00,76.0,71.2,30.00,East,88,0.0,0.0,85,0.00,,SKC,0.00,VWS V14.01,2013-08-26 08:50:00,
2013-08-26 03:55:00,76.0,71.2,30.00,East,88,0.0,0.0,85,0.00,,SKC,0.00,VWS V14.01,2013-08-26 08:55:00,
2013-08-26 04:00:00,76.0,71.2,30.00,East,88,0.0,0.0,85,0.00,,SKC,0.00,VWS V14.01,2013-08-26 09:00:00,
2013-08-26 04:05:00,76.0,71.2,30.00,East,88,0.0,6.0,85,0.00,,SKC,0.00,VWS V14.01,2013-08-26 09:05:00,
2013-08-26 04:10:00,76.0,71.2,30.00,East,88,3.0,3.0,85,0.00,,SKC,0.00,VWS V14.01,2013-08-26 09:10:00,
2013-08-26 04:15:00,76.0,71.2,30.00,East,88,0.0,5.0,85,0.00,,SKC,0.00,VWS V14.01,2013-08-26 09:15:00,
2013-08-26 04:20:00,76.0,71.2,30.00,East,88,0.0,5.0,85,0.00,,SKC,0.00,VWS V14.01,2013-08-26 09:20:00,
2013-08-26 04:25:00,76.0,71.2,30.00,East,88,0.0,5.0,85,0.00,,SKC,0.00,VWS V14.01,2013-08-26 09:25:00,
2013-08-26 04:30:00,75.9,71.1,30.00,East,88,0.0,0.0,85,0.00,,SKC,0.00,VWS V14.01,2013-08-26 09:30:00,
2013-08-26 04:35:00,75.9,71.4,30.00,East,88,0.0,0.0,86,0.00,,SKC,0.00,VWS V14.01,2013-08-26 09:35:00,
2013-08-26 04:40:00,75.8,71.3,30.00,East,88,0.0,6.0,86,0.00,,SKC,0.00,VWS V14.01,2013-08-26 09:40:00,
2013-08-26 04:45:00,75.8,71.3,30.00,East,88,0.0,6.0,86,0.00,,SKC,0.00,VWS V14.01,2013-08-26 09:45:00,
2013-08-26 04:50:00,75.8,71.3,30.00,East,87,0.0,7.0,86,0.00,,SKC,0.00,VWS V14.01,2013-08-26 09:50:00,
2013-08-26 04:55:00,75.8,71.3,30.00,East,86,0.0,7.0,86,0.00,,SKC,0.00,VWS V14.01,2013-08-26 09:55:00,
2013-08-26 05:00:00,75.8,71.3,30.00,East,86,0.0,3.0,86,0.00,,SKC,0.00,VWS V14.01,2013-08-26 10:00:00,
2013-08-26 05:05:00,75.7,71.2,30.00,East,86,3.0,5.0,86,0.00,,SKC,0.00,VWS V14.01,2013-08-26 10:05:00,
2013-08-26 05:10:00,75.7,71.2,30.01,East,85,0.0,6.0,86,0.00,,SKC,0.00,VWS V14.01,2013-08-26 10:10:00,
2013-08-26 05:15:00,75.8,71.3,30.01,East,85,0.0,6.0,86,0.00,,SKC,0.00,VWS V14.01,2013-08-26 10:15:00,
2013-08-26 05:20:00,75.8,71.3,30.01,East,85,0.0,2.0,86,0.00,,SKC,0.00,VWS V14.01,2013-08-26 10:20:00,
2013-08-26 05:25:00,75.8,71.3,30.01,East,84,0.0,8.0,86,0.00,,SKC,0.00,VWS V14.01,2013-08-26 10:25:00,
2013-08-26 05:30:00,75.8,71.3,30.00,East,82,0.0,5.0,86,0.00,,SKC,0.00,VWS V14.01,2013-08-26 10:30:00,
2013-08-26 05:35:00,75.9,71.8,30.00,East,81,0.0,7.0,87,0.00,,SKC,0.00,VWS V14.01,2013-08-26 10:35:00,
2013-08-26 05:40:00,75.9,71.8,30.01,East,80,0.0,8.0,87,0.00,,SKC,0.00,VWS V14.01,2013-08-26 10:40:00,
2013-08-26 05:45:00,75.9,71.8,30.01,East,80,0.0,8.0,87,0.00,,SKC,0.00,VWS V14.01,2013-08-26 10:45:00,
2013-08-26 05:50:00,76.0,71.9,30.01,East,80,0.0,0.0,87,0.00,,SKC,0.00,VWS V14.01,2013-08-26 10:50:00,
2013-08-26 05:55:00,75.9,72.1,30.01,East,80,0.0,0.0,88,0.00,,SKC,0.00,VWS V14.01,2013-08-26 10:55:00,
2013-08-26 06:00:00,75.9,72.1,30.01,East,80,0.0,6.0,88,0.00,,SKC,0.00,VWS V14.01,2013-08-26 11:00:00,
2013-08-26 06:05:00,75.8,72.0,30.01,East,80,0.0,6.0,88,0.00,,SKC,0.00,VWS V14.01,2013-08-26 11:05:00,
2013-08-26 06:10:00,75.7,72.2,30.01,East,80,0.0,0.0,89,0.00,,SKC,0.00,VWS V14.01,2013-08-26 11:10:00,
2013-08-26 06:15:00,75.7,72.2,30.01,East,80,0.0,3.0,89,0.00,,SKC,0.00,VWS V14.01,2013-08-26 11:15:00,
2013-08-26 06:20:00,75.6,72.1,30.01,East,80,0.0,0.0,89,0.00,,SKC,0.00,VWS V14.01,2013-08-26 11:20:00,
2013-08-26 06:25:00,75.6,72.1,30.01,East,80,0.0,2.0,89,0.00,,SKC,0.00,VWS V14.01,2013-08-26 11:25:00,
2013-08-26 06:30:00,75.6,72.1,30.01,East,80,0.0,3.0,89,0.00,,SKC,0.00,VWS V14.01,2013-08-26 11:30:00,
2013-08-26 06:35:00,75.6,72.1,30.02,East,80,0.0,3.0,89,0.00,,SKC,0.00,VWS V14.01,2013-08-26 11:35:00,
2013-08-26 06:40:00,75.7,72.6,30.02,East,80,0.0,6.0,90,0.00,,SKC,0.00,VWS V14.01,2013-08-26 11:40:00,
2013-08-26 06:45:00,75.7,72.6,30.02,East,80,2.0,6.0,90,0.00,,SKC,0.00,VWS V14.01,2013-08-26 11:45:00,
2013-08-26 06:50:00,75.7,72.6,30.02,East,80,0.0,7.0,90,0.00,,SKC,0.00,VWS V14.01,2013-08-26 11:50:00,
2013-08-26 06:55:00,75.8,72.7,30.02,East,80,0.0,7.0,90,0.00,,SKC,0.00,VWS V14.01,2013-08-26 11:55:00,
2013-08-26 07:00:00,75.8,72.7,30.02,East,80,0.0,0.0,90,0.00,,SKC,0.00,VWS V14.01,2013-08-26 12:00:00,
2013-08-26 07:05:00,75.8,72.3,30.01,East,80,0.0,5.0,89,0.00,,SKC,0.00,VWS V14.01,2013-08-26 12:05:00,
2013-08-26 07:10:00,75.8,72.3,30.02,East,80,0.0,7.0,89,0.00,,SKC,0.00,VWS V14.01,2013-08-26 12:10:00,
2013-08-26 07:15:00,75.8,72.7,30.02,East,80,0.0,7.0,90,0.00,,SKC,0.00,VWS V14.01,2013-08-26 12:15:00,
2013-08-26 07:20:00,75.9,72.4,30.02,East,80,2.0,6.0,89,0.00,,SKC,0.00,VWS V14.01,2013-08-26 12:20:00,
2013-08-26 07:25:00,75.9,72.4,30.02,East,80,0.0,6.0,89,0.00,,SKC,0.00,VWS V14.01,2013-08-26 12:25:00,
2013-08-26 07:30:00,76.0,72.9,30.03,East,80,5.0,7.0,90,0.00,,SKC,0.00,VWS V14.01,2013-08-26 12:30:00,
2013-08-26 07:35:00,76.0,72.5,30.03,East,79,0.0,7.0,89,0.00,,SKC,0.00,VWS V14.01,2013-08-26 12:35:00,
2013-08-26 07:40:00,76.1,72.6,30.02,ENE,78,0.0,6.0,89,0.00,,SKC,0.00,VWS V14.01,2013-08-26 12:40:00,
2013-08-26 07:45:00,76.2,72.7,30.03,ENE,77,0.0,7.0,89,0.00,,SKC,0.00,VWS V14.01,2013-08-26 12:45:00,
2013-08-26 07:50:00,76.3,73.2,30.03,ENE,76,0.0,8.0,90,0.00,,SKC,0.00,VWS V14.01,2013-08-26 12:50:00,
2013-08-26 07:55:00,76.4,72.9,30.03,ENE,76,0.0,8.0,89,0.00,,SKC,0.00,VWS V14.01,2013-08-26 12:55:00,
2013-08-26 08:00:00,76.4,72.9,30.03,ENE,76,0.0,9.0,89,0.00,,SKC,0.00,VWS V14.01,2013-08-26 13:00:00,
2013-08-26 08:05:00,76.5,73.0,30.03,ENE,74,0.0,9.0,89,0.00,,SKC,0.00,VWS V14.01,2013-08-26 13:05:00,
2013-08-26 08:10:00,76.6,73.1,30.03,ENE,74,0.0,7.0,89,0.00,,SKC,0.00,VWS V14.01,2013-08-26 13:10:00,
2013-08-26 08:15:00,76.7,73.2,30.03,ENE,74,0.0,7.0,89,0.00,,SKC,0.00,VWS V14.01,2013-08-26 13:15:00,
2013-08-26 08:20:00,76.9,73.4,30.03,ENE,74,0.0,4.0,89,0.00,,SKC,0.00,VWS V14.01,2013-08-26 13:20:00,
2013-08-26 08:25:00,76.9,73.1,30.03,ENE,74,0.0,7.0,88,0.00,,SKC,0.00,VWS V14.01,2013-08-26 13:25:00,
2013-08-26 08:30:00,77.0,73.2,30.04,ENE,73,0.0,8.0,88,0.00,,SKC,0.00,VWS V14.01,2013-08-26 13:30:00,
2013-08-26 08:35:00,77.1,73.3,30.03,ENE,74,4.0,8.0,88,0.00,,SKC,0.00,VWS V14.01,2013-08-26 13:35:00,
2013-08-26 08:40:00,77.2,73.0,30.03,ENE,76,0.0,9.0,87,0.00,,SKC,0.00,VWS V14.01,2013-08-26 13:40:00,
2013-08-26 08:45:00,77.3,73.1,30.04,ENE,76,0.0,9.0,87,0.00,,SKC,0.00,VWS V14.01,2013-08-26 13:45:00,
2013-08-26 08:50:00,77.5,73.3,30.04,ENE,77,0.0,10.0,87,0.00,,SKC,0.00,VWS V14.01,2013-08-26 13:50:00,
2013-08-26 08:55:00,77.5,73.3,30.04,ENE,76,0.0,10.0,87,0.00,,SKC,0.00,VWS V14.01,2013-08-26 13:55:00,
2013-08-26 09:00:00,77.5,73.3,30.04,ENE,76,2.0,8.0,87,0.00,,SKC,0.00,VWS V14.01,2013-08-26 14:00:00,
2013-08-26 09:05:00,77.5,73.3,30.04,ENE,75,0.0,8.0,87,0.00,,SKC,0.00,VWS V14.01,2013-08-26 14:05:00,
2013-08-26 09:10:00,77.5,73.3,30.05,ENE,68,0.0,11.0,87,0.00,,SKC,0.00,VWS V14.01,2013-08-26 14:10:00,
2013-08-26 09:15:00,77.6,73.4,30.05,ENE,67,0.0,11.0,87,0.00,,SKC,0.00,VWS V14.01,2013-08-26 14:15:00,
2013-08-26 09:20:00,77.8,73.6,30.05,ENE,67,0.0,5.0,87,0.00,,SKC,0.00,VWS V14.01,2013-08-26 14:20:00,
2013-08-26 09:25:00,78.1,73.6,30.05,ENE,67,0.0,9.0,86,0.00,,SKC,0.00,VWS V14.01,2013-08-26 14:25:00,
2013-08-26 09:30:00,78.4,73.5,30.05,ENE,67,1.0,9.0,85,0.00,,SKC,0.00,VWS V14.01,2013-08-26 14:30:00,
2013-08-26 09:35:00,78.9,73.7,30.05,ENE,69,5.0,9.0,84,0.00,,SKC,0.00,VWS V14.01,2013-08-26 14:35:00,
2013-08-26 09:40:00,79.2,73.2,30.06,ENE,74,1.0,13.0,82,0.00,,SKC,0.00,VWS V14.01,2013-08-26 14:40:00,
2013-08-26 09:45:00,79.4,73.4,30.06,ENE,74,0.0,13.0,82,0.00,,SKC,0.00,VWS V14.01,2013-08-26 14:45:00,
2013-08-26 09:50:00,79.6,73.3,30.05,ENE,73,1.0,8.0,81,0.00,,SKC,0.00,VWS V14.01,2013-08-26 14:50:00,
2013-08-26 09:55:00,79.7,73.4,30.06,ENE,73,0.0,8.0,81,0.00,,SKC,0.00,VWS V14.01,2013-08-26 14:55:00,
2013-08-26 10:00:00,79.8,73.1,30.06,ENE,74,0.0,5.0,80,0.00,,SKC,0.00,VWS V14.01,2013-08-26 15:00:00,
2013-08-26 10:05:00,80.0,73.3,30.06,ENE,74,0.0,5.0,80,0.00,,SKC,0.00,VWS V14.01,2013-08-26 15:05:00,
2013-08-26 10:10:00,80.2,73.8,30.06,ENE,73,0.0,8.0,81,0.00,,SKC,0.00,VWS V14.01,2013-08-26 15:10:00,
2013-08-26 10:15:00,80.6,73.5,30.06,ENE,73,0.0,9.0,79,0.00,,SKC,0.00,VWS V14.01,2013-08-26 15:15:00,
2013-08-26 10:20:00,80.9,73.4,30.06,ENE,72,0.0,8.0,78,0.00,,SKC,0.00,VWS V14.01,2013-08-26 15:20:00,
2013-08-26 10:25:00,81.3,73.4,30.06,ENE,60,0.0,8.0,77,0.00,,SKC,0.00,VWS V14.01,2013-08-26 15:25:00,
2013-08-26 10:30:00,81.7,73.4,30.06,NE,52,2.0,9.0,76,0.00,,SKC,0.00,VWS V14.01,2013-08-26 15:30:00,
2013-08-26 10:35:00,82.1,73.8,30.06,NE,53,0.0,9.0,76,0.00,,SKC,0.00,VWS V14.01,2013-08-26 15:35:00,
2013-08-26 10:40:00,82.3,73.6,30.06,NE,53,0.0,7.0,75,0.00,,SKC,0.00,VWS V14.01,2013-08-26 15:40:00,
2013-08-26 10:45:00,82.6,73.9,30.06,ENE,60,8.0,8.0,75,0.00,,SKC,0.00,VWS V14.01,2013-08-26 15:45:00,
2013-08-26 10:50:00,83.0,73.5,30.06,ENE,63,0.0,8.0,73,0.00,,SKC,0.00,VWS V14.01,2013-08-26 15:50:00,
2013-08-26 10:55:00,83.1,73.6,30.06,ENE,63,0.0,8.0,73,0.00,,SKC,0.00,VWS V14.01,2013-08-26 15:55:00,
2013-08-26 11:00:00,83.1,73.6,30.06,ENE,63,0.0,1.0,73,0.00,,SKC,0.00,VWS V14.01,2013-08-26 16:00:00,
2013-08-26 11:05:00,83.0,73.5,30.06,ENE,61,0.0,8.0,73,0.00,,SKC,0.00,VWS V14.01,2013-08-26 16:05:00,
2013-08-26 11:10:00,82.9,73.4,30.06,ENE,61,3.0,4.0,73,0.00,,SKC,0.00,VWS V14.01,2013-08-26 16:10:00,
2013-08-26 11:15:00,82.8,73.3,30.05,ENE,61,0.0,4.0,73,0.00,,SKC,0.00,VWS V14.01,2013-08-26 16:15:00,
2013-08-26 11:20:00,83.1,73.1,30.05,NE,44,5.0,10.0,72,0.00,,SKC,0.00,VWS V14.01,2013-08-26 16:20:00,
2013-08-26 11:25:00,83.3,72.9,30.06,NE,43,0.0,10.0,71,0.00,,SKC,0.00,VWS V14.01,2013-08-26 16:25:00,
2013-08-26 11:30:00,83.7,73.7,30.06,NE,40,7.0,11.0,72,0.00,,SKC,0.00,VWS V14.01,2013-08-26 16:30:00,
2013-08-26 11:35:00,84.2,73.4,30.06,NE,42,0.0,11.0,70,0.00,,SKC,0.00,VWS V14.01,2013-08-26 16:35:00,
2013-08-26 11:40:00,84.3,73.0,30.05,NE,46,2.0,7.0,69,0.00,,SKC,0.00,VWS V14.01,2013-08-26 16:40:00,
2013-08-26 11:45:00,84.7,73.0,30.05,NE,46,0.0,7.0,68,0.00,,SKC,0.00,VWS V14.01,2013-08-26 16:45:00,
2013-08-26 11:50:00,85.0,72.8,30.05,NE,45,1.0,9.0,67,0.00,,SKC,0.00,VWS V14.01,2013-08-26 16:50:00,
2013-08-26 11:55:00,85.2,73.0,30.05,NE,49,1.0,9.0,67,0.00,,SKC,0.00,VWS V14.01,2013-08-26 16:55:00,
2013-08-26 12:00:00,85.4,72.3,30.05,NE,45,0.0,10.0,65,0.00,,SKC,0.00,VWS V14.01,2013-08-26 17:00:00,
2013-08-26 12:05:00,85.4,72.3,30.05,NE,45,0.0,10.0,65,0.00,,SKC,0.00,VWS V14.01,2013-08-26 17:05:00,
2013-08-26 12:10:00,85.2,71.7,30.04,NE,41,1.0,9.0,64,0.00,,SKC,0.00,VWS V14.01,2013-08-26 17:10:00,
2013-08-26 12:15:00,85.2,71.7,30.04,NE,40,0.0,9.0,64,0.00,,SKC,0.00,VWS V14.01,2013-08-26 17:15:00,
2013-08-26 12:20:00,85.6,72.5,30.04,NE,47,3.0,9.0,65,0.00,,SKC,0.00,VWS V14.01,2013-08-26 17:20:00,
2013-08-26 12:25:00,86.5,72.4,30.04,NE,47,7.0,9.0,63,0.00,,SKC,0.00,VWS V14.01,2013-08-26 17:25:00,
2013-08-26 12:30:00,87.4,72.3,30.03,NE,49,9.0,9.0,61,0.00,,SKC,0.00,VWS V14.01,2013-08-26 17:30:00,
2013-08-26 12:35:00,88.3,72.2,30.03,NE,40,0.0,11.0,59,0.00,,SKC,0.00,VWS V14.01,2013-08-26 17:35:00,
2013-08-26 12:40:00,88.6,72.4,30.02,NE,49,2.0,8.0,59,0.00,,SKC,0.00,VWS V14.01,2013-08-26 17:40:00,
2013-08-26 12:45:00,88.7,72.0,30.02,NE,42,3.0,13.0,58,0.00,,SKC,0.00,VWS V14.01,2013-08-26 17:45:00,
2013-08-26 12:50:00,89.1,72.9,30.02,NE,49,3.0,10.0,59,0.00,,SKC,0.00,VWS V14.01,2013-08-26 17:50:00,
2013-08-26 12:55:00,89.7,71.9,30.02,NE,46,3.0,10.0,56,0.00,,SKC,0.00,VWS V14.01,2013-08-26 17:55:00,
2013-08-26 13:00:00,90.5,72.1,30.02,NE,48,2.0,7.0,55,0.00,,SKC,0.00,VWS V14.01,2013-08-26 18:00:00,
2013-08-26 13:04:00,91.0,72.6,30.01,NE,49,4.0,7.0,55,0.00,,SKC,0.00,VWS V14.01,2013-08-26 18:04:00,
2013-08-26 13:09:00,91.6,72.1,30.01,NE,39,2.0,6.0,53,0.00,,SKC,0.00,VWS V14.01,2013-08-26 18:09:00,
2013-08-26 13:10:00,91.1,72.2,30.01,NE,39,5.0,9.0,54,0.00,,SKC,0.00,VWS V14.01,2013-08-26 18:10:00,
2013-08-26 13:14:00,92.1,72.0,30.01,NE,49,7.0,12.0,52,0.00,,SKC,0.00,VWS V14.01,2013-08-26 18:14:00,
2013-08-26 13:19:00,92.4,72.2,30.01,NE,55,2.0,9.0,52,0.00,,SKC,0.00,VWS V14.01,2013-08-26 18:19:00,
2013-08-26 13:20:00,92.2,72.6,30.01,NE,44,6.0,13.0,53,0.00,,SKC,0.00,VWS V14.01,2013-08-26 18:20:00,
2013-08-26 13:24:00,92.6,72.4,30.00,ESE,113,0.0,13.0,52,0.00,,SKC,0.00,VWS V14.01,2013-08-26 18:24:00,
2013-08-26 13:29:00,92.4,72.2,30.01,NNE,17,8.0,13.0,52,0.00,,SKC,0.00,VWS V14.01,2013-08-26 18:29:00,
2013-08-26 13:30:00,92.6,72.4,30.00,East,86,3.0,13.0,52,0.00,,SKC,0.00,VWS V14.01,2013-08-26 18:30:00,
2013-08-26 13:34:00,91.4,71.9,30.00,NNE,32,5.0,20.0,53,0.00,,SKC,0.00,VWS V14.01,2013-08-26 18:34:00,
2013-08-26 13:39:00,90.5,71.6,30.01,NE,46,9.0,9.0,54,0.00,,SKC,0.00,VWS V14.01,2013-08-26 18:39:00,
2013-08-26 13:40:00,91.3,71.8,30.00,NNE,24,3.0,20.0,53,0.00,,SKC,0.00,VWS V14.01,2013-08-26 18:40:00,
2013-08-26 13:44:00,89.6,71.8,30.01,NE,42,6.0,12.0,56,0.00,,SKC,0.00,VWS V14.01,2013-08-26 18:44:00,
2013-08-26 13:49:00,89.0,72.3,30.01,NE,46,11.0,15.0,58,0.00,,SKC,0.00,VWS V14.01,2013-08-26 18:49:00,
2013-08-26 13:50:00,89.5,71.7,30.01,NE,52,12.0,13.0,56,0.00,,SKC,0.00,VWS V14.01,2013-08-26 18:50:00,
2013-08-26 13:54:00,88.3,72.2,30.01,ENE,78,3.0,15.0,59,0.00,,SKC,0.00,VWS V14.01,2013-08-26 18:54:00,
2013-08-26 14:00:00,88.3,72.2,30.01,East,80,6.0,15.0,59,0.00,,SKC,0.00,VWS V14.01,2013-08-26 19:00:00,
2013-08-26 14:05:00,87.7,71.1,30.01,NE,48,0.0,0.0,58,0.00,,SKC,0.00,VWS V14.01,2013-08-26 19:05:00,
2013-08-26 14:10:00,87.5,70.9,30.01,NE,44,5.0,9.0,58,0.00,,SKC,0.00,VWS V14.01,2013-08-26 19:10:00,
2013-08-26 14:15:00,87.2,71.1,30.01,NE,38,9.0,10.0,59,0.00,,SKC,0.00,VWS V14.01,2013-08-26 19:15:00,
2013-08-26 14:19:00,86.7,71.2,30.01,ENE,61,3.0,10.0,60,0.00,,SKC,0.00,VWS V14.01,2013-08-26 19:19:00,
2013-08-26 14:20:00,87.1,70.5,30.01,NE,43,5.0,10.0,58,0.00,,SKC,0.00,VWS V14.01,2013-08-26 19:20:00,
2013-08-26 14:24:00,86.1,71.1,30.01,ENE,78,0.0,10.0,61,0.00,,SKC,0.00,VWS V14.01,2013-08-26 19:24:00,
2013-08-26 14:29:00,85.7,71.2,30.00,ENE,68,0.0,7.0,62,0.00,,SKC,0.00,VWS V14.01,2013-08-26 19:29:00,
2013-08-26 14:30:00,86.0,71.0,30.01,East,84,0.0,10.0,61,0.00,,SKC,0.00,VWS V14.01,2013-08-26 19:30:00,
2013-08-26 14:34:00,85.7,71.7,30.01,NE,44,10.0,13.0,63,0.00,,SKC,0.00,VWS V14.01,2013-08-26 19:34:00,
2013-08-26 14:39:00,86.0,72.4,30.01,NE,51,11.0,16.0,64,0.00,,SKC,0.00,VWS V14.01,2013-08-26 19:39:00,
2013-08-26 14:40:00,85.8,71.8,30.01,NE,48,5.0,13.0,63,0.00,,SKC,0.00,VWS V14.01,2013-08-26 19:40:00,
2013-08-26 14:44:00,85.7,72.1,30.01,NE,49,0.0,16.0,64,0.00,,SKC,0.00,VWS V14.01,2013-08-26 19:44:00,
2013-08-26 14:49:00,84.9,71.8,30.01,ENE,63,7.0,10.0,65,0.00,,SKC,0.00,VWS V14.01,2013-08-26 19:49:00,
2013-08-26 14:50:00,85.6,72.0,30.01,ENE,59,10.0,16.0,64,0.00,,SKC,0.00,VWS V14.01,2013-08-26 19:50:00,
2013-08-26 14:54:00,84.2,71.6,30.00,NE,41,2.0,10.0,66,0.00,,SKC,0.00,VWS V14.01,2013-08-26 19:54:00,
2013-08-26 14:59:00,83.7,71.6,30.00,NE,41,3.0,7.0,67,0.00,,SKC,0.00,VWS V14.01,2013-08-26 19:59:00,
2013-08-26 15:00:00,84.1,71.5,30.00,NE,42,0.0,10.0,66,0.00,,SKC,0.00,VWS V14.01,2013-08-26 20:00:00,
2013-08-26 15:04:00,83.2,71.6,30.00,NE,43,0.0,7.0,68,0.00,,SKC,0.00,VWS V14.01,2013-08-26 20:04:00,
2013-08-26 15:09:00,83.0,71.4,30.00,NE,43,0.0,1.0,68,0.00,,SKC,0.00,VWS V14.01,2013-08-26 20:09:00,
2013-08-26 15:10:00,83.2,72.0,30.00,NE,43,0.0,7.0,69,0.00,,SKC,0.00,VWS V14.01,2013-08-26 20:10:00,
2013-08-26 15:14:00,83.0,71.8,29.99,NE,43,0.0,1.0,69,0.00,,SKC,0.00,VWS V14.01,2013-08-26 20:14:00,
2013-08-26 15:19:00,83.1,71.4,29.99,NE,43,0.0,0.0,68,0.00,,SKC,0.00,VWS V14.01,2013-08-26 20:19:00,
2013-08-26 15:20:00,83.0,71.4,30.00,NE,43,0.0,1.0,68,0.00,,SKC,0.00,VWS V14.01,2013-08-26 20:20:00,
2013-08-26 15:24:00,83.4,71.3,29.99,NE,43,0.0,0.0,67,0.00,,SKC,0.00,VWS V14.01,2013-08-26 20:24:00,
2013-08-26 15:29:00,83.9,71.8,29.99,NE,43,0.0,1.0,67,0.00,,SKC,0.00,VWS V14.01,2013-08-26 20:29:00,
2013-08-26 15:30:00,83.5,71.8,29.99,NE,43,0.0,0.0,68,0.00,,SKC,0.00,VWS V14.01,2013-08-26 20:30:00,
2013-08-26 15:34:00,84.7,72.1,29.99,NE,43,0.0,1.0,66,0.00,,SKC,0.00,VWS V14.01,2013-08-26 20:34:00,
2013-08-26 15:39:00,85.3,72.7,29.99,NE,43,0.0,2.0,66,0.00,,SKC,0.00,VWS V14.01,2013-08-26 20:39:00,
2013-08-26 15:40:00,84.8,72.2,29.99,NE,43,0.0,1.0,66,0.00,,SKC,0.00,VWS V14.01,2013-08-26 20:40:00,
2013-08-26 15:44:00,85.8,72.7,29.99,NE,41,4.0,5.0,65,0.00,,SKC,0.00,VWS V14.01,2013-08-26 20:44:00,
2013-08-26 15:49:00,86.1,73.0,29.99,ENE,73,4.0,12.0,65,0.00,,SKC,0.00,VWS V14.01,2013-08-26 20:49:00,
2013-08-26 15:50:00,86.0,72.9,29.99,NE,42,2.0,7.0,65,0.00,,SKC,0.00,VWS V14.01,2013-08-26 20:50:00,
2013-08-26 15:54:00,85.5,72.8,29.99,NE,46,0.0,12.0,66,0.00,,SKC,0.00,VWS V14.01,2013-08-26 20:54:00,
2013-08-26 15:59:00,84.6,72.4,30.00,NE,42,0.0,8.0,67,0.00,,SKC,0.00,VWS V14.01,2013-08-26 20:59:00,
2013-08-26 16:00:00,85.4,73.6,29.99,NE,52,3.0,12.0,68,0.00,,SKC,0.00,VWS V14.01,2013-08-26 21:00:00,
2013-08-26 16:04:00,83.5,73.1,29.99,NE,41,6.0,9.0,71,0.00,,SKC,0.00,VWS V14.01,2013-08-26 21:04:00,
2013-08-26 16:09:00,82.3,73.6,29.99,NNE,28,0.0,6.0,75,0.00,,SKC,0.00,VWS V14.01,2013-08-26 21:09:00,
2013-08-26 16:10:00,83.3,73.3,29.99,NNE,27,3.0,9.0,72,0.00,,SKC,0.00,VWS V14.01,2013-08-26 21:10:00,
2013-08-26 16:14:00,81.4,73.5,29.99,NNE,27,0.0,6.0,77,0.00,,SKC,0.00,VWS V14.01,2013-08-26 21:14:00,
2013-08-26 16:19:00,80.9,73.8,29.99,NNE,27,0.0,0.0,79,0.00,,SKC,0.00,VWS V14.01,2013-08-26 21:19:00,
2013-08-26 16:20:00,81.3,73.8,29.99,NNE,27,0.0,6.0,78,0.00,,SKC,0.00,VWS V14.01,2013-08-26 21:20:00,
2013-08-26 16:24:00,80.5,73.4,30.00,NNE,27,1.0,4.0,79,0.00,,SKC,0.00,VWS V14.01,2013-08-26 21:24:00,
2013-08-26 16:29:00,80.2,73.5,30.00,NNE,28,0.0,1.0,80,0.00,,SKC,0.00,VWS V14.01,2013-08-26 21:29:00,
2013-08-26 16:30:00,80.4,73.7,30.00,NNE,27,0.0,5.0,80,0.00,,SKC,0.00,VWS V14.01,2013-08-26 21:30:00,
2013-08-26 16:34:00,80.0,73.7,30.00,NE,36,1.0,6.0,81,0.02,,SKC,0.02,VWS V14.01,2013-08-26 21:34:00,
2013-08-26 16:39:00,79.6,73.6,30.00,NE,36,0.0,3.0,82,0.06,,SKC,0.06,VWS V14.01,2013-08-26 21:39:00,
2013-08-26 16:40:00,80.0,73.7,30.00,NE,36,0.0,6.0,81,0.04,,SKC,0.04,VWS V14.01,2013-08-26 21:40:00,
2013-08-26 16:44:00,79.1,73.8,30.00,NE,36,0.0,3.0,84,0.07,,SKC,0.07,VWS V14.01,2013-08-26 21:44:00,
2013-08-26 16:49:00,78.6,74.1,30.00,NE,36,0.0,0.0,86,0.07,,SKC,0.07,VWS V14.01,2013-08-26 21:49:00,
2013-08-26 16:50:00,78.9,73.7,30.00,NE,36,0.0,3.0,84,0.07,,SKC,0.07,VWS V14.01,2013-08-26 21:50:00,
2013-08-26 16:54:00,78.2,74.0,30.00,NE,36,0.0,0.0,87,0.07,,SKC,0.07,VWS V14.01,2013-08-26 21:54:00,
2013-08-26 16:59:00,78.1,74.3,30.00,NE,36,0.0,0.0,88,0.07,,SKC,0.07,VWS V14.01,2013-08-26 21:59:00,
2013-08-26 17:00:00,78.2,74.0,30.00,NE,36,0.0,0.0,87,0.07,,SKC,0.07,VWS V14.01,2013-08-26 22:00:00,
2013-08-26 17:04:00,78.0,74.2,29.99,NE,36,0.0,0.0,88,0.07,,SKC,0.07,VWS V14.01,2013-08-26 22:04:00,
2013-08-26 17:09:00,77.9,74.1,29.99,NE,36,0.0,0.0,88,0.07,,SKC,0.07,VWS V14.01,2013-08-26 22:09:00,
2013-08-26 17:10:00,78.0,74.2,30.00,NE,36,0.0,0.0,88,0.07,,SKC,0.07,VWS V14.01,2013-08-26 22:10:00,
2013-08-26 17:14:00,77.8,74.3,29.99,NE,36,0.0,0.0,89,0.07,,SKC,0.07,VWS V14.01,2013-08-26 22:14:00,
2013-08-26 17:19:00,77.9,74.7,29.99,NE,36,0.0,0.0,90,0.07,,SKC,0.07,VWS V14.01,2013-08-26 22:19:00,
2013-08-26 17:20:00,77.8,74.3,29.99,NE,36,0.0,0.0,89,0.07,,SKC,0.07,VWS V14.01,2013-08-26 22:20:00,
2013-08-26 17:24:00,78.0,74.5,29.99,NE,36,0.0,0.0,89,0.07,,SKC,0.07,VWS V14.01,2013-08-26 22:24:00,
2013-08-26 17:29:00,77.9,74.4,29.99,NE,36,0.0,0.0,89,0.07,,SKC,0.07,VWS V14.01,2013-08-26 22:29:00,
2013-08-26 17:30:00,77.9,74.4,29.99,NE,36,0.0,0.0,89,0.07,,SKC,0.07,VWS V14.01,2013-08-26 22:30:00,
2013-08-26 17:34:00,77.9,74.1,29.99,NE,36,0.0,0.0,88,0.07,,SKC,0.07,VWS V14.01,2013-08-26 22:34:00,
2013-08-26 17:39:00,77.8,74.0,29.99,NE,36,0.0,0.0,88,0.03,,SKC,0.07,VWS V14.01,2013-08-26 22:39:00,
2013-08-26 17:40:00,77.8,74.0,29.99,NE,36,0.0,0.0,88,0.07,,SKC,0.07,VWS V14.01,2013-08-26 22:40:00,
2013-08-26 17:44:00,77.8,74.0,29.99,NE,36,0.0,0.0,88,0.03,,SKC,0.07,VWS V14.01,2013-08-26 22:44:00,
2013-08-26 17:49:00,77.7,73.9,29.99,NE,37,0.0,1.0,88,0.00,,SKC,0.07,VWS V14.01,2013-08-26 22:49:00,
2013-08-26 17:50:00,77.8,74.0,29.99,NE,36,0.0,0.0,88,0.03,,SKC,0.07,VWS V14.01,2013-08-26 22:50:00,
2013-08-26 17:54:00,77.5,73.7,29.99,NE,37,0.0,1.0,88,0.00,,SKC,0.07,VWS V14.01,2013-08-26 22:54:00,
2013-08-26 17:59:00,77.4,73.6,29.99,NE,37,0.0,0.0,88,0.00,,SKC,0.07,VWS V14.01,2013-08-26 22:59:00,
2013-08-26 18:00:00,77.5,73.7,29.99,NE,37,0.0,1.0,88,0.00,,SKC,0.07,VWS V14.01,2013-08-26 23:00:00,
2013-08-26 18:04:00,77.3,73.5,29.99,NE,37,0.0,1.0,88,0.00,,SKC,0.07,VWS V14.01,2013-08-26 23:04:00,
2013-08-26 18:09:00,77.2,73.4,29.99,NE,40,0.0,4.0,88,0.00,,SKC,0.07,VWS V14.01,2013-08-26 23:09:00,
2013-08-26 18:10:00,77.3,73.5,29.98,NE,37,0.0,1.0,88,0.00,,SKC,0.07,VWS V14.01,2013-08-26 23:10:00,
2013-08-26 18:14:00,77.1,73.3,29.99,NE,41,0.0,4.0,88,0.00,,SKC,0.07,VWS V14.01,2013-08-26 23:14:00,
2013-08-26 18:19:00,77.1,73.3,29.99,NE,42,2.0,5.0,88,0.00,,SKC,0.07,VWS V14.01,2013-08-26 23:19:00,
2013-08-26 18:20:00,77.1,73.3,29.99,NE,42,0.0,4.0,88,0.00,,SKC,0.07,VWS V14.01,2013-08-26 23:20:00,
2013-08-26 18:24:00,77.0,73.2,29.99,NE,42,0.0,5.0,88,0.00,,SKC,0.07,VWS V14.01,2013-08-26 23:24:00,
2013-08-26 18:29:00,76.9,73.1,29.99,NE,42,0.0,0.0,88,0.00,,SKC,0.07,VWS V14.01,2013-08-26 23:29:00,
2013-08-26 18:30:00,77.0,73.2,29.99,NE,42,0.0,5.0,88,0.00,,SKC,0.07,VWS V14.01,2013-08-26 23:30:00,
2013-08-26 18:34:00,76.8,73.0,29.99,NE,42,0.0,0.0,88,0.00,,SKC,0.07,VWS V14.01,2013-08-26 23:34:00,
2013-08-26 18:39:00,76.7,72.9,29.99,NE,42,0.0,1.0,88,0.01,,SKC,0.08,VWS V14.01,2013-08-26 23:39:00,
2013-08-26 18:40:00,76.8,73.0,29.99,NE,42,0.0,0.0,88,0.00,,SKC,0.07,VWS V14.01,2013-08-26 23:40:00,
2013-08-26 18:44:00,76.6,72.8,29.99,NE,44,0.0,5.0,88,0.06,,SKC,0.13,VWS V14.01,2013-08-26 23:44:00,
2013-08-26 18:49:00,76.2,72.7,29.99,NE,44,0.0,0.0,89,0.09,,SKC,0.16,VWS V14.01,2013-08-26 23:49:00,
2013-08-26 18:50:00,76.5,73.0,29.99,NE,44,0.0,5.0,89,0.07,,SKC,0.14,VWS V14.01,2013-08-26 23:50:00,
2013-08-26 18:54:00,76.0,72.9,29.99,NE,44,0.0,0.0,90,0.10,,SKC,0.17,VWS V14.01,2013-08-26 23:54:00,
2013-08-26 18:59:00,75.7,72.6,29.99,NE,44,0.0,0.0,90,0.11,,SKC,0.18,VWS V14.01,2013-08-26 23:59:00,
2013-08-26 19:00:00,75.9,72.8,29.99,NE,44,0.0,0.0,90,0.10,,SKC,0.17,VWS V14.01,2013-08-27 00:00:00,
2013-08-26 19:04:00,75.5,72.7,29.99,NE,44,0.0,0.0,91,0.11,,SKC,0.18,VWS V14.01,2013-08-27 00:04:00,
2013-08-26 19:09:00,75.3,72.5,29.99,NE,44,0.0,0.0,91,0.11,,SKC,0.18,VWS V14.01,2013-08-27 00:09:00,
2013-08-26 19:10:00,75.5,72.7,29.99,NE,44,0.0,0.0,91,0.11,,SKC,0.18,VWS V14.01,2013-08-27 00:10:00,
2013-08-26 19:14:00,75.3,72.8,29.98,NE,44,0.0,0.0,92,0.11,,SKC,0.18,VWS V14.01,2013-08-27 00:14:00,
2013-08-26 19:19:00,75.3,72.8,29.98,NE,44,0.0,0.0,92,0.11,,SKC,0.18,VWS V14.01,2013-08-27 00:19:00,
2013-08-26 19:20:00,75.3,72.8,29.98,NE,44,0.0,0.0,92,0.11,,SKC,0.18,VWS V14.01,2013-08-27 00:20:00,
2013-08-26 19:24:00,75.2,72.7,29.98,NE,44,0.0,0.0,92,0.11,,SKC,0.18,VWS V14.01,2013-08-27 00:24:00,
2013-08-26 19:29:00,75.2,73.0,29.98,NE,44,0.0,1.0,93,0.11,,SKC,0.18,VWS V14.01,2013-08-27 00:29:00,
2013-08-26 19:30:00,75.2,72.7,29.98,NE,44,0.0,0.0,92,0.11,,SKC,0.18,VWS V14.01,2013-08-27 00:30:00,
2013-08-26 19:34:00,75.2,73.0,29.98,NE,44,0.0,1.0,93,0.11,,SKC,0.18,VWS V14.01,2013-08-27 00:34:00,
2013-08-26 19:39:00,75.2,73.0,29.98,NE,44,0.0,0.0,93,0.11,,SKC,0.18,VWS V14.01,2013-08-27 00:39:00,
2013-08-26 19:40:00,75.2,73.0,29.98,NE,44,0.0,1.0,93,0.11,,SKC,0.18,VWS V14.01,2013-08-27 00:40:00,
2013-08-26 19:44:00,75.3,73.1,29.98,NE,44,0.0,0.0,93,0.11,,SKC,0.18,VWS V14.01,2013-08-27 00:44:00,
2013-08-26 19:49:00,75.3,73.1,29.98,NE,44,0.0,0.0,93,0.04,,SKC,0.18,VWS V14.01,2013-08-27 00:49:00,
2013-08-26 19:50:00,75.3,73.1,29.98,NE,44,0.0,0.0,93,0.11,,SKC,0.18,VWS V14.01,2013-08-27 00:50:00,
2013-08-26 19:54:00,75.3,73.1,29.98,NE,44,0.0,0.0,93,0.04,,SKC,0.18,VWS V14.01,2013-08-27 00:54:00,
2013-08-26 19:59:00,75.3,73.1,29.99,NE,44,0.0,1.0,93,0.01,,SKC,0.18,VWS V14.01,2013-08-27 00:59:00,
2013-08-26 20:00:00,75.3,73.1,29.98,NE,44,0.0,0.0,93,0.04,,SKC,0.18,VWS V14.01,2013-08-27 01:00:00,
2013-08-26 20:04:00,75.1,72.9,29.99,NE,44,0.0,1.0,93,0.01,,SKC,0.18,VWS V14.01,2013-08-27 01:04:00,
2013-08-26 20:09:00,75.0,72.8,29.99,NE,44,0.0,0.0,93,0.00,,SKC,0.18,VWS V14.01,2013-08-27 01:09:00,
2013-08-26 20:10:00,75.1,72.9,29.99,NE,44,0.0,1.0,93,0.01,,SKC,0.18,VWS V14.01,2013-08-27 01:10:00,
2013-08-26 20:14:00,74.9,72.7,29.99,NE,44,0.0,0.0,93,0.00,,SKC,0.18,VWS V14.01,2013-08-27 01:14:00,
2013-08-26 20:19:00,74.8,72.6,29.99,NE,44,0.0,0.0,93,0.00,,SKC,0.18,VWS V14.01,2013-08-27 01:19:00,
2013-08-26 20:20:00,74.9,72.7,29.99,NE,44,0.0,0.0,93,0.00,,SKC,0.18,VWS V14.01,2013-08-27 01:20:00,
2013-08-26 20:24:00,74.8,72.6,29.99,NE,44,0.0,0.0,93,0.00,,SKC,0.18,VWS V14.01,2013-08-27 01:24:00,
2013-08-26 20:29:00,74.7,72.6,29.99,NE,44,0.0,0.0,93,0.00,,SKC,0.18,VWS V14.01,2013-08-27 01:29:00,
2013-08-26 20:30:00,74.8,72.6,29.99,NE,44,0.0,0.0,93,0.00,,SKC,0.18,VWS V14.01,2013-08-27 01:30:00,
2013-08-26 20:34:00,74.7,72.6,29.99,NE,44,0.0,0.0,93,0.00,,SKC,0.18,VWS V14.01,2013-08-27 01:34:00,
2013-08-26 20:39:00,74.8,72.6,29.99,NE,44,0.0,0.0,93,0.00,,SKC,0.18,VWS V14.01,2013-08-27 01:39:00,
2013-08-26 20:40:00,74.8,72.6,29.99,NE,44,0.0,1.0,93,0.00,,SKC,0.18,VWS V14.01,2013-08-27 01:40:00,
2013-08-26 20:44:00,74.9,73.1,29.99,NE,44,0.0,0.0,94,0.00,,SKC,0.18,VWS V14.01,2013-08-27 01:44:00,
2013-08-26 20:49:00,74.9,73.1,29.99,NE,44,0.0,1.0,94,0.00,,SKC,0.18,VWS V14.01,2013-08-27 01:49:00,
2013-08-26 20:50:00,74.9,73.1,29.99,NE,44,0.0,0.0,94,0.00,,SKC,0.18,VWS V14.01,2013-08-27 01:50:00,
2013-08-26 20:54:00,75.0,73.2,29.99,NE,44,0.0,5.0,94,0.00,,SKC,0.18,VWS V14.01,2013-08-27 01:54:00,
2013-08-26 20:59:00,75.0,73.2,29.99,NE,44,0.0,6.0,94,0.00,,SKC,0.18,VWS V14.01,2013-08-27 01:59:00,
2013-08-26 21:00:00,75.0,73.2,29.99,NE,44,0.0,5.0,94,0.00,,SKC,0.18,VWS V14.01,2013-08-27 02:00:00,
2013-08-26 21:04:00,74.9,73.1,30.00,NE,44,0.0,6.0,94,0.00,,SKC,0.18,VWS V14.01,2013-08-27 02:04:00,
2013-08-26 21:09:00,74.9,73.1,30.00,NE,44,0.0,6.0,94,0.00,,SKC,0.18,VWS V14.01,2013-08-27 02:09:00,
2013-08-26 21:10:00,74.9,73.1,30.00,NE,44,0.0,6.0,94,0.00,,SKC,0.18,VWS V14.01,2013-08-27 02:10:00,
2013-08-26 21:14:00,74.8,73.0,30.00,NE,45,0.0,6.0,94,0.00,,SKC,0.18,VWS V14.01,2013-08-27 02:14:00,
2013-08-26 21:19:00,74.8,73.0,30.00,NE,49,4.0,8.0,94,0.00,,SKC,0.18,VWS V14.01,2013-08-27 02:19:00,
2013-08-26 21:20:00,74.8,73.0,30.00,NE,45,4.0,6.0,94,0.00,,SKC,0.18,VWS V14.01,2013-08-27 02:20:00,
2013-08-26 21:24:00,74.6,72.8,30.00,NE,50,2.0,8.0,94,0.00,,SKC,0.18,VWS V14.01,2013-08-27 02:24:00,
2013-08-26 21:29:00,74.4,72.6,30.00,NE,53,0.0,6.0,94,0.00,,SKC,0.18,VWS V14.01,2013-08-27 02:29:00,
2013-08-26 21:30:00,74.5,72.7,30.00,NE,51,0.0,8.0,94,0.00,,SKC,0.18,VWS V14.01,2013-08-27 02:30:00,
2013-08-26 21:34:00,74.2,72.4,30.00,NE,55,0.0,6.0,94,0.00,,SKC,0.18,VWS V14.01,2013-08-27 02:34:00,
2013-08-26 21:39:00,74.2,72.4,30.00,ENE,59,4.0,8.0,94,0.00,,SKC,0.18,VWS V14.01,2013-08-27 02:39:00,
2013-08-26 21:40:00,74.2,72.4,30.00,NE,55,0.0,6.0,94,0.00,,SKC,0.18,VWS V14.01,2013-08-27 02:40:00,
2013-08-26 21:44:00,74.0,72.2,30.00,ENE,61,3.0,8.0,94,0.00,,SKC,0.18,VWS V14.01,2013-08-27 02:44:00,
2013-08-26 21:49:00,73.9,72.1,30.00,ENE,65,0.0,9.0,94,0.00,,SKC,0.18,VWS V14.01,2013-08-27 02:49:00,
2013-08-26 21:50:00,74.0,71.8,30.00,ENE,63,4.0,8.0,93,0.00,,SKC,0.18,VWS V14.01,2013-08-27 02:50:00,
2013-08-26 21:54:00,73.9,72.1,30.00,ENE,66,3.0,9.0,94,0.00,,SKC,0.18,VWS V14.01,2013-08-27 02:54:00,
2013-08-26 21:59:00,73.9,72.1,30.00,ENE,66,0.0,5.0,94,0.00,,SKC,0.18,VWS V14.01,2013-08-27 02:59:00,
2013-08-26 22:00:00,73.9,72.1,30.00,ENE,66,0.0,9.0,94,0.00,,SKC,0.18,VWS V14.01,2013-08-27 03:00:00,
2013-08-26 22:04:00,73.8,72.0,30.00,ENE,68,0.0,9.0,94,0.00,,SKC,0.18,VWS V14.01,2013-08-27 03:04:00,
2013-08-26 22:09:00,73.8,72.0,30.00,ENE,68,0.0,0.0,94,0.00,,SKC,0.18,VWS V14.01,2013-08-27 03:09:00,
2013-08-26 22:10:00,73.8,72.0,30.00,ENE,68,0.0,9.0,94,0.00,,SKC,0.18,VWS V14.01,2013-08-27 03:10:00,
2013-08-26 22:14:00,73.8,72.0,30.00,ENE,68,0.0,7.0,94,0.00,,SKC,0.18,VWS V14.01,2013-08-27 03:14:00,
2013-08-26 22:19:00,73.8,72.0,30.00,ENE,68,0.0,1.0,94,0.00,,SKC,0.18,VWS V14.01,2013-08-27 03:19:00,
2013-08-26 22:20:00,73.8,72.0,30.00,ENE,68,0.0,7.0,94,0.00,,SKC,0.18,VWS V14.01,2013-08-27 03:20:00,
2013-08-26 22:24:00,73.8,72.0,30.00,ENE,68,0.0,7.0,94,0.00,,SKC,0.18,VWS V14.01,2013-08-27 03:24:00,
2013-08-26 22:29:00,73.8,72.0,30.01,ENE,69,0.0,1.0,94,0.00,,SKC,0.18,VWS V14.01,2013-08-27 03:29:00,
2013-08-26 22:30:00,73.8,72.0,30.00,ENE,68,0.0,7.0,94,0.00,,SKC,0.18,VWS V14.01,2013-08-27 03:30:00,
2013-08-26 22:34:00,73.8,72.0,30.01,ENE,69,0.0,2.0,94,0.00,,SKC,0.18,VWS V14.01,2013-08-27 03:34:00,
2013-08-26 22:39:00,73.8,72.0,30.01,ENE,69,0.0,0.0,94,0.00,,SKC,0.18,VWS V14.01,2013-08-27 03:39:00,
2013-08-26 22:40:00,73.8,72.0,30.01,ENE,69,0.0,2.0,94,0.00,,SKC,0.18,VWS V14.01,2013-08-27 03:40:00,
2013-08-26 22:44:00,73.8,72.0,30.01,ENE,69,0.0,0.0,94,0.00,,SKC,0.18,VWS V14.01,2013-08-27 03:44:00,
2013-08-26 22:49:00,73.8,72.0,30.01,ENE,69,0.0,4.0,94,0.00,,SKC,0.18,VWS V14.01,2013-08-27 03:49:00,
2013-08-26 22:50:00,73.8,72.0,30.01,ENE,69,0.0,2.0,94,0.00,,SKC,0.18,VWS V14.01,2013-08-27 03:50:00,
2013-08-26 22:54:00,73.7,71.9,30.02,ENE,69,0.0,7.0,94,0.00,,SKC,0.18,VWS V14.01,2013-08-27 03:54:00,
2013-08-26 22:59:00,73.7,71.9,30.02,ENE,69,0.0,3.0,94,0.00,,SKC,0.18,VWS V14.01,2013-08-27 03:59:00,
2013-08-26 23:00:00,73.7,71.9,30.02,ENE,69,0.0,7.0,94,0.00,,SKC,0.18,VWS V14.01,2013-08-27 04:00:00,
2013-08-26 23:01:00,73.7,71.9,30.02,ENE,69,0.0,3.0,94,0.00,,SKC,0.18,VWS V14.01,2013-08-27 04:01:00,
2013-08-26 23:06:00,73.7,71.9,30.02,ENE,69,0.0,0.0,94,0.00,,SKC,0.18,VWS V14.01,2013-08-27 04:06:00,
2013-08-26 23:10:00,73.8,72.0,30.02,ENE,69,0.0,3.0,94,0.00,,SKC,0.18,VWS V14.01,2013-08-27 04:10:00,
2013-08-26 23:11:00,73.8,72.0,30.03,ENE,69,0.0,0.0,94,0.00,,SKC,0.18,VWS V14.01,2013-08-27 04:11:00,
2013-08-26 23:16:00,73.8,72.0,30.03,ENE,69,0.0,0.0,94,0.00,,SKC,0.18,VWS V14.01,2013-08-27 04:16:00,
2013-08-26 23:20:00,73.8,72.0,30.03,ENE,69,0.0,1.0,94,0.00,,SKC,0.18,VWS V14.01,2013-08-27 04:20:00,
2013-08-26 23:21:00,73.8,72.0,30.02,ENE,69,0.0,0.0,94,0.00,,SKC,0.18,VWS V14.01,2013-08-27 04:21:00,
2013-08-26 23:26:00,73.8,72.0,30.02,ENE,69,0.0,0.0,94,0.00,,SKC,0.18,VWS V14.01,2013-08-27 04:26:00,
2013-08-26 23:30:00,73.8,72.0,30.02,ENE,69,0.0,0.0,94,0.00,,SKC,0.18,VWS V14.01,2013-08-27 04:30:00,
2013-08-26 23:31:00,73.8,72.0,30.02,ENE,69,0.0,0.0,94,0.00,,SKC,0.18,VWS V14.01,2013-08-27 04:31:00,
2013-08-26 23:36:00,73.8,72.0,30.02,ENE,69,0.0,0.0,94,0.00,,SKC,0.18,VWS V14.01,2013-08-27 04:36:00,
2013-08-26 23:40:00,73.8,72.0,30.02,ENE,69,0.0,0.0,94,0.00,,SKC,0.18,VWS V14.01,2013-08-27 04:40:00,
2013-08-26 23:41:00,73.8,72.0,30.02,ENE,69,0.0,0.0,94,0.00,,SKC,0.18,VWS V14.01,2013-08-27 04:41:00,
2013-08-26 23:46:00,73.8,72.0,30.02,ENE,69,0.0,0.0,94,0.00,,SKC,0.18,VWS V14.01,2013-08-27 04:46:00,
2013-08-26 23:50:00,73.8,72.0,30.02,ENE,69,0.0,0.0,94,0.00,,SKC,0.18,VWS V14.01,2013-08-27 04:50:00,
2013-08-26 23:51:00,73.8,72.0,30.02,ENE,69,0.0,0.0,94,0.00,,SKC,0.18,VWS V14.01,2013-08-27 04:51:00,
2013-08-26 23:56:00,73.8,72.0,30.02,ENE,69,0.0,0.0,94,0.00,,SKC,0.00,VWS V14.01,2013-08-27 04:56:00,